Chillicothe, MO

5:32 PM CST on November 20, 2017 (GMT -0600)
Chillicothe

Weather History for KCDJ - January, 2013

Change the Weather History Date:

Saturday, January 26, 2013

  Actual Average (KIRK) Record (KIRK)
Temperature  
Mean Temperature 30 °F -  
Max Temperature 41 °F 31 °F 63 °F (1942)
Min Temperature 18 °F 14 °F -16 °F (1936)
Degree Days  
Heating Degree Days 36    
Moisture  
Dew Point 14 °F    
Average Humidity 54    
Maximum Humidity 72    
Minimum Humidity 36    
Precipitation  
Precipitation 0.00 in - - ()
Sea Level Pressure  
Sea Level Pressure 30.32 in    
Wind  
Wind Speed 6 mph (East)    
Max Wind Speed 10 mph    
Max Gust Speed -    
Averages and records for this station are not official NWS values.
T = Trace of Precipitation, MM = Missing Value Source: NWS Daily Summary

Daily Weather History Graph

Daily Weather History Graph

Search for Another Location

Airport or City:

Trip Planner

Search our weather history database for the weather conditions in past years. The results will help you decide how hot, cold, wet, or windy it might be!

Date:

Astronomy

Jan. 26, 2013 Rise Set
Actual Time 7:27 AM CST 5:27 PM CST
Civil Twilight 6:58 AM CST 5:55 PM CST
Nautical Twilight 6:25 AM CST 6:28 PM CST
Astronomical Twilight 5:53 AM CST 7:00 PM CST
Moon 5:22 PM CST (1/26) 6:45 AM CST (1/26)
Length of Visible Light 10h 57m
Length of Day
9h 59m
Full, 100% of the Moon is Illuminated
Jan 26
Full
Jan 26
Full
Feb 3
Last Quarter
Feb 10
New
Feb 17
First Quarter

Hourly Weather History & Observations

Time (CST) Temp. Windchill Dew Point Humidity Pressure Visibility Wind Dir Wind Speed Gust Speed Precip Events Conditions
12:52 AM 32.0 °F 25.6 °F 21.0 °F 64% 30.30 in - North 6.9 mph - N/A   Unknown
1:52 AM 28.0 °F 22.8 °F 19.9 °F 72% 30.31 in - North 4.6 mph - N/A   Unknown
2:52 AM 25.0 °F 15.5 °F 16.0 °F 69% 30.33 in - NNE 9.2 mph - N/A   Unknown
3:52 AM 23.0 °F 18.4 °F 15.1 °F 72% 30.34 in - NNE 3.5 mph - N/A   Unknown
4:52 AM 21.9 °F 17.2 °F 12.9 °F 68% 30.34 in - NE 3.5 mph - N/A   Unknown
5:52 AM 19.9 °F 14.9 °F 10.9 °F 68% 30.35 in - NE 3.5 mph - N/A   Unknown
6:52 AM 18.0 °F - 10.0 °F 71% 30.40 in - Calm Calm - N/A   Unknown
7:52 AM 18.0 °F 11.1 °F 7.0 °F 62% 30.40 in - ENE 4.6 mph - N/A   Unknown
8:52 AM 21.0 °F 12.4 °F 10.0 °F 63% 30.42 in - ESE 6.9 mph - N/A   Unknown
9:52 AM 24.1 °F 13.7 °F 10.0 °F 55% 30.42 in - ESE 10.4 mph - N/A   Unknown
10:52 AM 27.0 °F 19.5 °F 10.0 °F 49% 30.42 in - ESE 6.9 mph - N/A   Unknown
11:52 AM 30.0 °F 21.7 °F 10.9 °F 45% 30.40 in - SE 9.2 mph - N/A   Unknown
12:52 PM 33.1 °F 26.1 °F 12.0 °F 42% 30.34 in - ESE 8.1 mph - N/A   Unknown
1:52 PM 36.0 °F 30.3 °F 12.9 °F 39% 30.32 in - East 6.9 mph - N/A   Unknown
2:52 PM 39.0 °F 33.4 °F 15.1 °F 38% 30.29 in - ESE 8.1 mph - N/A   Unknown
3:52 PM 41.0 °F 35.8 °F 16.0 °F 36% 30.28 in - ESE 8.1 mph - N/A   Unknown
4:52 PM 39.0 °F 34.0 °F 16.0 °F 39% 30.27 in - ESE 6.9 mph - N/A   Unknown
5:52 PM 36.0 °F 30.3 °F 16.0 °F 44% 30.26 in - ESE 6.9 mph - N/A   Unknown
6:52 PM 36.0 °F 30.3 °F 16.0 °F 44% 30.25 in - ESE 6.9 mph - N/A   Unknown
7:52 PM 35.1 °F 28.6 °F 17.1 °F 48% 30.25 in - ESE 8.1 mph - N/A   Unknown
8:52 PM 34.0 °F 27.2 °F 17.1 °F 50% 30.25 in - SE 8.1 mph - N/A   Unknown
9:52 PM 33.1 °F 28.7 °F 17.1 °F 52% 30.24 in - SE 4.6 mph - N/A   Unknown
10:52 PM 33.1 °F 26.9 °F 17.1 °F 52% 30.21 in - SE 6.9 mph - N/A   Unknown
11:52 PM 33.1 °F 25.5 °F 18.0 °F 54% 30.20 in - SE 9.2 mph - N/A   Unknown